Regional Weather Roundup
Issued by NWS

Home | Current Version | Previous Version | Text Only | Print | Product List | Glossary Off
Versions: 1 2 3 4 5 6 7 8 9 10 11 12 13 14 15 16 17 18 19 20 21 22 23 24 25 26 27 28 29 30 31 32 33 34 35 36 37 38 39 40 41 42 43 44 45 46 47 48 49 50

000
ASUS43 KIND 241309
RWRIN

WEATHER ROUNDUP FOR INDIANA
NATIONAL WEATHER SERVICE INDIANAPOLIS IN
900 AM EDT THU JUL 24 2014

NOTE: "FAIR" INDICATES FEW OR NO CLOUDS BELOW 12,000 FEET WITH NO
SIGNIFICANT WEATHER AND/OR OBSTRUCTIONS TO VISIBILITY.

* - STATION DOES NOT REPORT WEATHER SUCH AS PRECIPITATION OR FOG.

+ - STATION NOT QUALITY CONTROLLED BY THE NATIONAL WEATHER SERVICE.
    USE DATA WITH CAUTION...ESPECIALLY DEWPOINT AND RELATIVE
    HUMIDITY OBSERVATIONS.

INZ001>003-010>013-019-020-241400-
NORTHWEST INDIANA

CITY           SKY/WX    TMP DP  RH WIND       PRES   REMARKS
GARY /AIRPORT/ MOSUNNY   66  59  77 N12       30.17R
KNOX *+        PTSUNNY   60  55  85 NE8       30.15R
LA PORTE +     MOSUNNY   62  54  74 NE9       30.17R
MICHIGAN CITY+ SUNNY     61  55  82 CALM      30.17R
MONTICELLO +   SUNNY     60  57  88 NE3       30.13R
RENSSELAER +   MOSUNNY   61  59  94 N5        30.15R
VALPARAISO     MOSUNNY   63  56  78 VRB5      30.16R

$$

LMZ046-743>745-241400-
SOUTHERN LAKE MICHIGAN

STATION/POSITION TIME  TEMP WIND        PRES
                       AIR  DIR/SP/G
                 (UTC) (F)  (DEG/KT/KT) (MB)
MICHIGAN CITY    1300   62   30/  8/  9   N/A

$$

INZ004-005-014>016-021>024-241400-
NORTH CENTRAL INDIANA

CITY           SKY/WX    TMP DP  RH WIND       PRES   REMARKS
ELKHART        MOSUNNY   61  57  88 N5        30.16R
GOSHEN         PTSUNNY   63  55  75 NE7       30.15R
LOGANSPORT +   CLOUDY    63  55  77 NE6       30.14R
PERU/GRISSOM   MOSUNNY   63  63  99 NE10      30.12R
ROCHESTER +    PTSUNNY   63  59  88 NE6       30.15R
SOUTH BEND     MOSUNNY   63  55  75 N7        30.16S
WARSAW +       MOSUNNY   61  57  88 N7        30.14S

$$

INZ006>009-017-018-025>027-241400-
NORTHEAST INDIANA

CITY           SKY/WX    TMP DP  RH WIND       PRES   REMARKS
ANGOLA *+      CLOUDY    63  54  72 N6        30.14S
AUBURN +       PTSUNNY   63  50  63 NE8       30.15R
FORT WAYNE     MOSUNNY   65  52  62 NE12      30.13R
HUNTINGTON +   CLOUDY    63  55  76 NE5       30.12S

$$

INZ028-029-035-036-043>045-051>053-241400-
WEST CENTRAL INDIANA

CITY           SKY/WX    TMP DP  RH WIND       PRES   REMARKS
GREENCASTLE +  SUNNY     61  57  88 N6        30.11R
LAFAYETTE      PTSUNNY   61  56  83 N8        30.13R
TERRE HAUTE    SUNNY     62  56  80 N8        30.11R

$$

INZ030>032-037>040-046>048-054>057-064-065-241400-
CENTRAL INDIANA

CITY           SKY/WX    TMP DP  RH WIND       PRES   REMARKS
ANDERSON       PTSUNNY   61  59  94 NE6       30.12
CP ATTERBURY + SUNNY     64  59  82 NE8       30.10R
COLUMBUS       SUNNY     63  59  88 NE8         N/A
INDIANAPOLIS   MOSUNNY   64  58  80 NE13      30.09R
-EAGLE CREEK   SUNNY     65  58  78 VRB5      30.10R
KOKOMO *+      SUNNY     63  61  94 NE7       30.12R
MARION +       SUNNY     62  56  79 NE8       30.13R
MT COMFORT *+  CLOUDY    63 N/A N/A NE7       30.11R
SHELBYVILLE    SUNNY     65  58  78 NE7       30.09R
ZIONSVILLE +   SUNNY     63  58  85 N6        30.12R

$$

INZ033-034-041-042-049-050-058-059-241400-
EAST CENTRAL INDIANA

CITY           SKY/WX    TMP DP  RH WIND       PRES   REMARKS
MUNCIE         MOSUNNY   63  57  81 NE8       30.11R

$$

INZ060-061-067>069-081>083-085>088-241400-
SOUTHWEST INDIANA

CITY           SKY/WX    TMP DP  RH WIND       PRES   REMARKS
EVANSVILLE     PTSUNNY   63  55  75 N9        30.07R
HUNTINGBURG *+ PTSUNNY   64  57  77 NE9       30.06R
WASHINGTON +   MOSUNNY   63  60  90 NE6       30.07R

$$

INZ062-063-066-070>080-084-089>092-241400-
SOUTH CENTRAL AND SOUTHEAST INDIANA

CITY           SKY/WX    TMP DP  RH WIND       PRES   REMARKS
BEDFORD +      SUNNY     66  55  68 NE6       30.08R
BLOOMINGTON    SUNNY     65  58  78 NE9       30.09R
NORTH VERNON + SUNNY     64  63  94 NE10      30.08R
SEYMOUR +      SUNNY     63  46  55 NE8       30.07R

$$



USA.gov is the U.S. government's official web portal to all federal, state and local government web resources and services.